Вернуться в каталог

FENGYUN 1C DEB

АктивенSSO
NORAD 30417·DEBRIS·🇨🇳 China

Запущен May 10, 1999 с Taiyuan Satellite Launch Center

Loading…

Ближайшие Пролёты (ближайшие 24 часа)

TLE

СвежийSource: Space-Track

Эпоха: Sep 14, 2026, 10:43 UTC

1 30417U 99025AEG 26257.44694326  .00000299  00000-0  17349-3 0  9997
2 30417  98.7150 245.6474 0064682  53.3711  98.2891 14.14934407 12811

Отслеживайте FENGYUN 1C DEB в реальном времени с AllMySat

Download on the App Store